Location: Cactus School
(34.5700°N, 118.0931°W)
Time: 13:36:40
(UTC-08:00)

Explorer 11/Cluster Stage 4 - All Passes

Search period start: 15 November 2019 00:00
Search period end: 25 November 2019 00:00
Orbit: 467 x 1259 km, 28.8° (Epoch: 14 November)

Date Brightness Start Highest point End Pass type
(mag) Time Alt. Az. Time Alt. Az. Time Alt. Az.
15 Nov - 00:53:07 10° W 01:00:51 49° SSW 01:08:36 10° ESE night (unlit)
15 Nov - 02:43:02 10° W 02:49:36 27° SSW 02:55:50 10° SSE visible
15 Nov - 19:19:21 10° SSW 19:23:42 20° SSE 19:28:39 10° ESE visible
15 Nov - 21:05:34 10° SW 21:11:53 44° SSE 21:19:18 10° E visible
15 Nov - 22:53:33 10° WSW 23:00:49 57° S 23:08:52 10° ESE night (unlit)
16 Nov - 00:42:22 10° W 00:49:55 46° SSW 00:57:39 10° SE night (unlit)
16 Nov - 02:32:24 10° WSW 02:38:38 24° SSW 02:44:41 10° SSE visible
16 Nov - 19:08:27 10° SSW 19:12:51 22° SSE 19:17:56 10° ESE visible
16 Nov - 20:54:52 10° WSW 21:01:02 46° SSE 21:08:22 10° E visible
16 Nov - 22:42:52 10° WSW 22:49:56 57° S 22:57:55 10° ESE night (unlit)
17 Nov - 00:31:40 10° W 00:38:59 43° SSW 00:46:39 10° SE night (unlit)
17 Nov - 02:21:51 10° WSW 02:27:41 21° SSW 02:33:25 10° SSE visible
17 Nov - 18:57:37 10° SSW 19:02:01 24° SSE 19:07:10 10° ESE visible
17 Nov - 20:44:13 10° WSW 20:50:13 48° SSE 20:57:26 10° E visible
17 Nov - 22:32:13 10° W 22:39:04 55° S 22:46:57 10° ESE night (unlit)
18 Nov - 00:20:59 10° W 00:28:04 40° SSW 00:35:36 10° SE night (unlit)
18 Nov - 02:11:25 10° WSW 02:16:43 19° SSW 02:22:00 10° S night (unlit)
18 Nov - 18:46:51 10° SSW 18:51:12 25° SSE 18:56:23 10° ESE visible
18 Nov - 20:33:37 10° WSW 20:39:24 49° S 20:46:29 10° E visible
18 Nov - 22:21:36 10° W 22:28:14 53° S 22:35:58 10° ESE night (unlit)
19 Nov - 00:10:22 10° W 00:17:09 36° SSW 00:24:29 10° SE night (unlit)
19 Nov - 02:01:09 10° WSW 02:05:46 16° SSW 02:10:25 10° S night (unlit)
19 Nov - 18:36:08 10° SW 18:40:25 27° SSE 18:45:34 10° ESE visible
19 Nov - 20:23:02 10° WSW 20:28:38 50° S 20:35:31 10° E visible
19 Nov - 22:11:00 10° W 22:17:23 50° S 22:24:56 10° ESE night (unlit)
19 Nov - 23:59:48 10° W 00:06:15 33° SSW 00:13:18 10° SE night (unlit)
20 Nov - 01:51:08 10° WSW 01:54:50 14° SSW 01:58:35 10° S night (unlit)
20 Nov - 18:25:28 10° SW 18:29:41 29° SSE 18:34:46 10° E visible
20 Nov - 20:12:29 10° WSW 20:17:52 50° S 20:24:34 10° ESE visible
20 Nov - 22:00:27 10° W 22:06:34 47° S 22:13:54 10° ESE night (unlit)
20 Nov - 23:49:17 10° WSW 23:55:21 29° SSW 00:02:03 10° SE night (unlit)
21 Nov - 01:41:40 10° SW 01:43:54 11° SSW 01:46:09 10° SSW night (unlit)
21 Nov - 18:14:51 10° SW 18:18:57 30° SSE 18:23:56 10° ESE visible
21 Nov - 20:01:58 10° WSW 20:07:08 49° S 20:13:36 10° ESE visible
21 Nov - 21:49:55 10° W 21:55:46 44° S 22:02:49 10° ESE night (unlit)
21 Nov - 23:38:52 10° WSW 23:44:29 25° SSW 23:50:43 10° SSE night (unlit)
22 Nov - 16:20:13 10° SSE 16:20:43 10° SSE 16:21:13 10° SE daylight
22 Nov - 18:04:15 10° SW 18:08:16 32° SSE 18:13:07 10° ESE visible
22 Nov - 19:51:28 10° WSW 19:56:26 48° S 20:02:39 10° ESE visible
22 Nov - 21:39:25 10° W 21:44:59 40° SSW 21:51:43 10° SE night (unlit)
22 Nov - 23:28:32 10° WSW 23:33:37 22° SSW 23:39:17 10° SSE night (unlit)
23 Nov - 16:08:36 10° S 16:10:01 12° SSE 16:11:29 10° SE daylight
23 Nov - 17:53:42 10° SW 17:57:36 33° SSE 18:02:18 10° ESE visible
23 Nov - 19:41:00 10° WSW 19:45:44 46° S 19:51:41 10° ESE visible
23 Nov - 21:28:59 10° WSW 21:34:14 36° SSW 21:40:35 10° SE night (unlit)
23 Nov - 23:18:20 10° WSW 23:22:47 19° SSW 23:27:43 10° SSE night (unlit)
24 Nov - 15:57:29 10° S 15:59:19 13° SSE 16:01:16 10° SE daylight
24 Nov - 17:43:09 10° SW 17:46:57 34° SSE 17:51:30 10° ESE visible
24 Nov - 19:30:32 10° WSW 19:35:04 44° S 19:40:44 10° ESE visible
24 Nov - 21:18:34 10° WSW 21:23:29 32° SSW 21:29:24 10° SE night (unlit)
24 Nov - 23:08:21 10° WSW 23:11:58 15° SSW 23:15:56 10° S night (unlit)
